TimePST,TemperatureF,Dew PointF,Humidity,Sea Level PressureIn,VisibilityMPH,Wind Direction,Wind SpeedMPH,Gust SpeedMPH,PrecipitationIn,Events,Conditions,WindDirDegrees,DateUTC
12:56 AM,32.0,28.9,88,30.40,9.0,SE,6.9,-,N/A,,Partly Cloudy,130,2014-01-04 08:56:00
1:56 AM,33.1,28.9,85,30.42,7.0,ESE,5.8,-,N/A,,Scattered Clouds,110,2014-01-04 09:56:00
2:56 AM,35.1,30.9,85,30.44,7.0,East,5.8,-,N/A,,Scattered Clouds,90,2014-01-04 10:56:00
3:56 AM,36.0,32.0,86,30.45,10.0,ESE,3.5,-,N/A,,Scattered Clouds,120,2014-01-04 11:56:00
4:56 AM,34.0,30.0,85,30.45,9.0,SE,4.6,-,N/A,,Scattered Clouds,130,2014-01-04 12:56:00
5:56 AM,35.1,30.9,85,30.47,10.0,ESE,4.6,-,N/A,,Mostly Cloudy,120,2014-01-04 13:56:00
6:56 AM,33.1,28.9,85,30.46,6.0,East,6.9,-,N/A,,Mostly Cloudy,100,2014-01-04 14:56:00
7:56 AM,32.0,28.0,85,30.47,10.0,ESE,5.8,-,N/A,,Scattered Clouds,120,2014-01-04 15:56:00
8:56 AM,33.1,30.0,89,30.49,10.0,ESE,4.6,-,N/A,Fog,Patches of Fog,120,2014-01-04 16:56:00
9:56 AM,37.9,34.0,86,30.50,10.0,SE,4.6,-,N/A,,Scattered Clouds,130,2014-01-04 17:56:00
10:56 AM,39.9,34.0,79,30.50,10.0,ESE,8.1,-,N/A,,Scattered Clouds,120,2014-01-04 18:56:00
11:56 AM,43.0,34.0,71,30.50,10.0,SE,3.5,-,N/A,,Partly Cloudy,140,2014-01-04 19:56:00
12:56 PM,44.1,34.0,68,30.48,10.0,East,3.5,-,N/A,,Partly Cloudy,90,2014-01-04 20:56:00
1:56 PM,46.0,33.1,61,30.48,10.0,Variable,4.6,-,N/A,,Partly Cloudy,0,2014-01-04 21:56:00
2:56 PM,46.0,30.9,56,30.48,10.0,ENE,4.6,-,N/A,,Partly Cloudy,60,2014-01-04 22:56:00
3:56 PM,43.0,30.9,62,30.47,10.0,ENE,4.6,-,N/A,,Partly Cloudy,70,2014-01-04 23:56:00
4:56 PM,39.9,32.0,73,30.47,10.0,ENE,3.5,-,N/A,,Partly Cloudy,60,2014-01-05 00:56:00
5:56 PM,37.9,32.0,79,30.48,10.0,Calm,Calm,-,N/A,,Partly Cloudy,0,2014-01-05 01:56:00
6:56 PM,34.0,30.0,85,30.48,10.0,Calm,Calm,-,N/A,,Partly Cloudy,0,2014-01-05 02:56:00
7:56 PM,33.1,28.9,85,30.49,10.0,South,3.5,-,N/A,,Partly Cloudy,180,2014-01-05 03:56:00
8:56 PM,30.0,26.1,85,30.49,9.0,ESE,6.9,-,N/A,,Partly Cloudy,120,2014-01-05 04:56:00
9:56 PM,34.0,30.0,85,30.50,10.0,ENE,3.5,-,N/A,,Partly Cloudy,60,2014-01-05 05:56:00
10:56 PM,32.0,28.0,85,30.50,10.0,Calm,Calm,-,N/A,,Partly Cloudy,0,2014-01-05 06:56:00
11:56 PM,32.0,27.0,82,30.51,10.0,Variable,3.5,-,N/A,,Partly Cloudy,0,2014-01-05 07:56:00